Time,TemperatureF,DewpointF,PressureIn,WindDirection,WindDirectionDegrees,WindSpeedMPH,WindSpeedGustMPH,Humidity,HourlyPrecipIn,Conditions,Clouds,dailyrainin,SolarRadiationWatts/m^2,SoftwareType,DateUTC
2013-08-01 00:02:00,53.1,48.7,29.99,South,191,0.0,0.0,85,0.00,,,0.00,0.0,WeatherDisplay:10.37,2013-08-01 07:02:00,
2013-08-01 00:07:00,53.0,48.6,29.99,South,191,0.0,0.0,85,0.00,,,0.00,0.0,WeatherDisplay:10.37,2013-08-01 07:07:00,
2013-08-01 00:12:00,53.1,49.0,29.99,South,191,0.0,0.0,86,0.00,,,0.00,0.0,WeatherDisplay:10.37,2013-08-01 07:12:00,
2013-08-01 00:17:00,53.3,49.2,29.99,South,191,0.0,0.0,86,0.00,,,0.00,0.0,WeatherDisplay:10.37,2013-08-01 07:17:00,
2013-08-01 00:22:00,53.3,49.2,29.99,South,191,0.0,0.0,86,0.00,,,0.00,0.0,WeatherDisplay:10.37,2013-08-01 07:22:00,
2013-08-01 00:27:00,53.3,49.2,29.99,South,191,0.0,0.0,86,0.00,,,0.00,0.0,WeatherDisplay:10.37,2013-08-01 07:27:00,
2013-08-01 00:32:00,53.1,49.0,29.99,South,191,0.0,0.0,86,0.00,,,0.00,0.0,WeatherDisplay:10.37,2013-08-01 07:32:00,
2013-08-01 00:37:00,53.0,48.9,29.99,South,191,0.0,0.0,86,0.00,,,0.00,0.0,WeatherDisplay:10.37,2013-08-01 07:37:00,
2013-08-01 00:42:00,53.0,49.2,29.99,South,191,0.0,0.0,87,0.00,,,0.00,0.0,WeatherDisplay:10.37,2013-08-01 07:42:00,
2013-08-01 00:47:00,53.1,49.3,30.00,South,191,0.0,0.0,87,0.00,,,0.00,0.0,WeatherDisplay:10.37,2013-08-01 07:47:00,
2013-08-01 00:53:00,53.1,49.3,29.99,South,191,0.0,0.0,87,0.00,,,0.00,0.0,WeatherDisplay:10.37,2013-08-01 07:53:00,
2013-08-01 00:58:00,53.0,49.2,29.99,South,191,0.0,0.0,87,0.00,,,0.00,0.0,WeatherDisplay:10.37,2013-08-01 07:58:00,
2013-08-01 01:04:00,52.8,49.0,29.99,South,191,0.0,0.0,87,0.00,,,0.00,0.0,WeatherDisplay:10.37,2013-08-01 08:04:00,
2013-08-01 01:09:00,52.9,49.1,29.99,South,191,0.0,0.0,87,0.00,,,0.00,0.0,WeatherDisplay:10.37,2013-08-01 08:09:00,
2013-08-01 01:14:00,52.5,49.0,29.99,South,191,0.0,0.0,88,0.00,,,0.00,0.0,WeatherDisplay:10.37,2013-08-01 08:14:00,
2013-08-01 01:19:00,52.6,49.1,29.99,South,191,0.0,0.0,88,0.00,,,0.00,0.0,WeatherDisplay:10.37,2013-08-01 08:19:00,
2013-08-01 01:24:00,52.3,48.9,29.99,South,191,0.0,0.0,88,0.00,,,0.00,0.0,WeatherDisplay:10.37,2013-08-01 08:24:00,
2013-08-01 01:29:00,52.1,48.7,29.99,South,191,0.0,0.0,88,0.00,,,0.00,0.0,WeatherDisplay:10.37,2013-08-01 08:29:00,
2013-08-01 01:35:00,52.2,48.8,29.99,South,191,0.0,0.0,88,0.00,,,0.00,0.0,WeatherDisplay:10.37,2013-08-01 08:35:00,
2013-08-01 01:41:00,51.7,48.3,29.99,South,191,0.0,0.0,88,0.00,,,0.00,0.0,WeatherDisplay:10.37,2013-08-01 08:41:00,
2013-08-01 01:47:00,51.6,48.2,29.99,South,191,0.0,0.0,88,0.00,,,0.00,0.0,WeatherDisplay:10.37,2013-08-01 08:47:00,
2013-08-01 01:53:00,51.9,48.5,29.99,South,191,0.0,0.0,88,0.00,,,0.00,0.0,WeatherDisplay:10.37,2013-08-01 08:53:00,
2013-08-01 01:58:00,52.1,48.7,29.98,South,191,0.0,0.0,88,0.00,,,0.00,0.0,WeatherDisplay:10.37,2013-08-01 08:58:00,
2013-08-01 02:03:00,51.9,48.5,29.98,South,191,0.0,0.0,88,0.00,,,0.00,0.0,WeatherDisplay:10.37,2013-08-01 09:03:00,
2013-08-01 02:09:00,52.1,49.0,29.98,South,191,0.0,0.0,89,0.00,,,0.00,0.0,WeatherDisplay:10.37,2013-08-01 09:09:00,
2013-08-01 02:14:00,52.2,49.1,29.98,South,191,0.0,0.0,89,0.00,,,0.00,0.0,WeatherDisplay:10.37,2013-08-01 09:14:00,
2013-08-01 02:19:00,52.1,49.0,29.98,South,191,0.0,0.0,89,0.00,,,0.00,0.0,WeatherDisplay:10.37,2013-08-01 09:19:00,
2013-08-01 02:25:00,51.9,48.8,29.98,South,191,0.0,0.0,89,0.00,,,0.00,0.0,WeatherDisplay:10.37,2013-08-01 09:25:00,
2013-08-01 02:33:00,51.5,48.4,29.98,South,191,0.0,0.0,89,0.00,,,0.00,0.0,WeatherDisplay:10.37,2013-08-01 09:33:00,
2013-08-01 02:38:00,51.5,48.4,29.98,South,191,0.0,0.0,89,0.00,,,0.00,0.0,WeatherDisplay:10.37,2013-08-01 09:38:00,
2013-08-01 02:43:00,51.5,48.7,29.98,South,191,0.0,0.0,90,0.00,,,0.00,0.0,WeatherDisplay:10.37,2013-08-01 09:43:00,
2013-08-01 02:50:00,51.5,48.7,29.99,South,191,0.0,0.0,90,0.00,,,0.00,0.0,WeatherDisplay:10.37,2013-08-01 09:50:00,
2013-08-01 02:55:00,51.2,48.4,29.98,South,191,0.0,0.0,90,0.00,,,0.00,0.0,WeatherDisplay:10.37,2013-08-01 09:55:00,
2013-08-01 03:02:00,51.1,48.3,29.98,South,191,0.0,0.0,90,0.00,,,0.00,0.0,WeatherDisplay:10.37,2013-08-01 10:02:00,
2013-08-01 03:07:00,51.5,48.7,29.98,South,191,0.0,0.0,90,0.00,,,0.00,0.0,WeatherDisplay:10.37,2013-08-01 10:07:00,
2013-08-01 03:12:00,51.3,48.5,29.98,South,191,0.0,0.0,90,0.00,,,0.00,0.0,WeatherDisplay:10.37,2013-08-01 10:12:00,
2013-08-01 03:17:00,51.2,48.7,29.98,South,191,0.0,0.0,91,0.00,,,0.00,0.0,WeatherDisplay:10.37,2013-08-01 10:17:00,
2013-08-01 03:26:00,51.1,48.3,29.98,South,191,0.0,0.0,90,0.00,,,0.00,0.0,WeatherDisplay:10.37,2013-08-01 10:26:00,
2013-08-01 03:34:00,50.9,48.4,29.98,South,191,0.0,0.0,91,0.00,,,0.00,0.0,WeatherDisplay:10.37,2013-08-01 10:34:00,
2013-08-01 03:39:00,50.8,48.3,29.98,South,191,0.0,0.0,91,0.00,,,0.00,0.0,WeatherDisplay:10.37,2013-08-01 10:39:00,
2013-08-01 03:44:00,50.9,48.4,29.98,South,191,0.0,0.0,91,0.00,,,0.00,0.0,WeatherDisplay:10.37,2013-08-01 10:44:00,
2013-08-01 03:49:00,50.8,48.3,29.98,South,191,0.0,0.0,91,0.00,,,0.00,0.0,WeatherDisplay:10.37,2013-08-01 10:49:00,
2013-08-01 03:55:00,50.5,48.8,29.98,South,191,0.0,0.0,94,0.00,,,0.00,0.0,WeatherDisplay:10.37,2013-08-01 10:55:00,
2013-08-01 04:00:00,50.6,48.1,29.98,South,191,0.0,0.0,91,0.00,,,0.00,0.0,WeatherDisplay:10.37,2013-08-01 11:00:00,
2013-08-01 04:05:00,50.5,48.0,29.98,South,191,0.0,0.0,91,0.00,,,0.00,0.0,WeatherDisplay:10.37,2013-08-01 11:05:00,
2013-08-01 04:10:00,50.8,48.3,29.98,South,191,0.0,0.0,91,0.00,,,0.00,0.0,WeatherDisplay:10.37,2013-08-01 11:10:00,
2013-08-01 04:15:00,50.9,48.7,29.98,South,191,0.0,0.0,92,0.00,,,0.00,0.0,WeatherDisplay:10.37,2013-08-01 11:15:00,
2013-08-01 04:20:00,51.3,49.1,29.99,South,191,0.0,0.0,92,0.00,,,0.00,0.0,WeatherDisplay:10.37,2013-08-01 11:20:00,
2013-08-01 04:25:00,51.2,49.5,29.99,South,191,0.0,0.0,94,0.00,,,0.00,0.0,WeatherDisplay:10.37,2013-08-01 11:25:00,
2013-08-01 04:30:00,51.1,48.6,29.99,South,191,0.0,0.0,91,0.00,,,0.00,0.0,WeatherDisplay:10.37,2013-08-01 11:30:00,
2013-08-01 04:36:00,51.0,48.4,29.99,South,191,0.0,0.0,91,0.00,,,0.00,0.0,WeatherDisplay:10.37,2013-08-01 11:36:00,
2013-08-01 04:42:00,50.9,48.4,29.99,South,191,0.2,1.2,91,0.00,,,0.00,0.0,WeatherDisplay:10.37,2013-08-01 11:42:00,
2013-08-01 04:48:00,51.0,48.5,29.99,South,191,0.9,1.2,91,0.00,,,0.00,0.0,WeatherDisplay:10.37,2013-08-01 11:48:00,
2013-08-01 04:57:00,51.7,49.2,29.99,SSW,196,1.0,2.3,91,0.00,,,0.00,0.0,WeatherDisplay:10.37,2013-08-01 11:57:00,
2013-08-01 05:04:00,51.6,48.8,29.99,SSW,196,0.0,0.0,90,0.00,,,0.00,0.0,WeatherDisplay:10.37,2013-08-01 12:04:00,
2013-08-01 05:10:00,51.2,48.4,30.00,SSW,197,0.1,1.2,90,0.00,,,0.00,0.0,WeatherDisplay:10.37,2013-08-01 12:10:00,
2013-08-01 05:16:00,51.0,48.2,30.00,SSW,197,0.0,0.0,90,0.00,,,0.00,0.0,WeatherDisplay:10.37,2013-08-01 12:16:00,
2013-08-01 05:23:00,51.4,48.9,30.00,SSW,196,0.1,1.2,91,0.00,,,0.00,0.0,WeatherDisplay:10.37,2013-08-01 12:23:00,
2013-08-01 05:28:00,51.5,48.7,30.00,SSW,197,0.0,0.0,90,0.00,,,0.00,0.0,WeatherDisplay:10.37,2013-08-01 12:28:00,
2013-08-01 05:35:00,51.2,48.4,30.00,SSW,196,0.0,0.0,90,0.00,,,0.00,0.0,WeatherDisplay:10.37,2013-08-01 12:35:00,
2013-08-01 05:40:00,50.8,48.0,30.00,SSW,197,0.0,0.0,90,0.00,,,0.00,0.0,WeatherDisplay:10.37,2013-08-01 12:40:00,
2013-08-01 05:45:00,50.2,47.4,30.00,SSW,197,0.0,0.0,90,0.00,,,0.00,0.0,WeatherDisplay:10.37,2013-08-01 12:45:00,
2013-08-01 05:52:00,50.0,47.2,30.00,SSW,197,0.0,0.0,90,0.00,,,0.00,0.0,WeatherDisplay:10.37,2013-08-01 12:52:00,
2013-08-01 05:57:00,50.0,47.2,30.00,SSW,197,0.0,0.0,90,0.00,,,0.00,0.0,WeatherDisplay:10.37,2013-08-01 12:57:00,
2013-08-01 06:02:00,49.9,47.4,30.00,SSW,197,0.0,0.0,91,0.00,,,0.00,0.0,WeatherDisplay:10.37,2013-08-01 13:02:00,
2013-08-01 06:07:00,49.9,47.4,30.00,SSW,196,0.0,0.0,91,0.00,,,0.00,0.0,WeatherDisplay:10.37,2013-08-01 13:07:00,
2013-08-01 06:14:00,50.1,47.9,30.01,SSW,197,0.0,0.0,92,0.00,,,0.00,0.0,WeatherDisplay:10.37,2013-08-01 13:14:00,
2013-08-01 06:19:00,50.1,47.6,30.01,SSW,196,0.0,0.0,91,0.00,,,0.00,5.0,WeatherDisplay:10.37,2013-08-01 13:19:00,
2013-08-01 06:24:00,49.8,47.3,30.01,SSW,197,0.0,0.0,91,0.00,SCT,,0.00,7.0,WeatherDisplay:10.37,2013-08-01 13:24:00,
2013-08-01 06:30:00,49.4,46.9,30.01,SSW,197,0.0,0.0,91,0.00,BKN,,0.00,12.0,WeatherDisplay:10.37,2013-08-01 13:30:00,
2013-08-01 06:37:00,49.6,47.4,30.01,SSW,196,0.0,0.0,92,0.00,BKN,,0.00,19.0,WeatherDisplay:10.37,2013-08-01 13:37:00,
2013-08-01 06:44:00,50.2,48.0,30.01,SSW,196,0.0,0.0,92,0.00,SCT,,0.00,33.0,WeatherDisplay:10.37,2013-08-01 13:44:00,
2013-08-01 06:53:00,50.9,48.7,30.01,SSW,196,0.0,0.0,92,0.00,SCT,,0.00,54.0,WeatherDisplay:10.37,2013-08-01 13:53:00,
2013-08-01 06:59:00,50.8,48.6,30.01,SSW,197,0.0,0.0,92,0.00,FEW,,0.00,69.0,WeatherDisplay:10.37,2013-08-01 13:59:00,
2013-08-01 07:04:00,50.9,48.7,30.01,SSW,196,0.3,1.0,92,0.00,FEW,,0.00,84.0,WeatherDisplay:10.37,2013-08-01 14:04:00,
2013-08-01 07:09:00,51.3,48.8,30.01,SSW,197,0.2,2.3,91,0.00,CLR,,0.00,100.0,WeatherDisplay:10.37,2013-08-01 14:09:00,
2013-08-01 07:14:00,51.9,49.4,30.01,SSW,197,0.0,1.2,91,0.00,CLR,,0.00,118.0,WeatherDisplay:10.37,2013-08-01 14:14:00,
2013-08-01 07:21:00,52.3,49.5,30.01,SSW,197,0.0,0.0,90,0.00,CLR,,0.00,141.0,WeatherDisplay:10.37,2013-08-01 14:21:00,
2013-08-01 07:27:00,53.0,50.1,30.02,SSW,196,0.0,0.0,90,0.00,CLR,,0.00,158.0,WeatherDisplay:10.37,2013-08-01 14:27:00,
2013-08-01 07:32:00,53.5,50.3,30.02,SSW,197,0.0,0.0,89,0.00,CLR,,0.00,176.0,WeatherDisplay:10.37,2013-08-01 14:32:00,
2013-08-01 07:37:00,55.1,51.9,30.02,SSW,196,0.6,1.2,89,0.00,CLR,,0.00,195.0,WeatherDisplay:10.37,2013-08-01 14:37:00,
2013-08-01 07:42:00,55.7,51.6,30.02,SSW,192,1.4,2.3,86,0.00,CLR,,0.00,213.0,WeatherDisplay:10.37,2013-08-01 14:42:00,
2013-08-01 07:48:00,56.2,51.7,30.02,South,175,2.2,4.0,85,0.00,CLR,,0.00,230.0,WeatherDisplay:10.37,2013-08-01 14:48:00,
2013-08-01 07:53:00,56.2,51.7,30.02,ESE,119,2.0,3.5,85,0.00,CLR,,0.00,244.0,WeatherDisplay:10.37,2013-08-01 14:53:00,
2013-08-01 07:58:00,57.0,51.9,30.02,ESE,118,1.1,3.5,83,0.00,CLR,,0.00,262.0,WeatherDisplay:10.37,2013-08-01 14:58:00,
2013-08-01 08:04:00,57.0,51.6,30.02,ESE,118,0.1,0.0,82,0.00,CLR,,0.00,285.0,WeatherDisplay:10.37,2013-08-01 15:04:00,
2013-08-01 08:09:00,57.5,51.7,30.02,ESE,118,0.7,2.3,81,0.00,CLR,,0.00,302.0,WeatherDisplay:10.37,2013-08-01 15:09:00,
2013-08-01 08:15:00,58.1,52.0,30.02,ESE,108,2.3,3.5,80,0.00,CLR,,0.00,322.0,WeatherDisplay:10.37,2013-08-01 15:15:00,
2013-08-01 08:20:00,58.5,52.0,30.02,ESE,107,1.1,3.5,79,0.00,CLR,,0.00,341.0,WeatherDisplay:10.37,2013-08-01 15:20:00,
2013-08-01 08:26:00,58.9,52.4,30.03,ESE,104,1.0,4.0,79,0.00,CLR,,0.00,369.0,WeatherDisplay:10.37,2013-08-01 15:26:00,
2013-08-01 08:32:00,59.1,52.2,30.03,East,101,2.7,3.5,78,0.00,CLR,,0.00,390.0,WeatherDisplay:10.37,2013-08-01 15:32:00,
2013-08-01 08:37:00,59.7,52.5,30.03,East,98,0.0,0.0,77,0.00,CLR,,0.00,408.0,WeatherDisplay:10.37,2013-08-01 15:37:00,
2013-08-01 08:42:00,60.5,52.9,30.03,East,98,0.3,1.2,76,0.00,CLR,,0.00,420.0,WeatherDisplay:10.37,2013-08-01 15:42:00,
2013-08-01 08:47:00,60.8,52.8,30.03,East,95,2.2,5.0,75,0.00,CLR,,0.00,439.0,WeatherDisplay:10.37,2013-08-01 15:47:00,
2013-08-01 08:52:00,60.5,52.2,30.03,ENE,74,0.0,1.2,74,0.00,CLR,,0.00,455.0,WeatherDisplay:10.37,2013-08-01 15:52:00,
2013-08-01 08:58:00,61.5,52.8,30.03,ENE,74,0.5,2.3,73,0.00,CLR,,0.00,478.0,WeatherDisplay:10.37,2013-08-01 15:58:00,
2013-08-01 09:03:00,61.5,52.8,30.03,ENE,74,1.3,3.5,73,0.00,CLR,,0.00,496.0,WeatherDisplay:10.37,2013-08-01 16:03:00,
2013-08-01 09:12:00,61.8,53.1,30.03,ENE,76,1.0,2.3,73,0.00,CLR,,0.00,524.0,WeatherDisplay:10.37,2013-08-01 16:12:00,
2013-08-01 09:17:00,63.3,53.7,30.03,ENE,71,1.3,2.3,71,0.00,CLR,,0.00,540.0,WeatherDisplay:10.37,2013-08-01 16:17:00,
2013-08-01 09:23:00,63.8,53.4,30.03,ENE,70,0.1,1.2,69,0.00,CLR,,0.00,559.0,WeatherDisplay:10.37,2013-08-01 16:23:00,
2013-08-01 09:28:00,64.1,52.9,30.03,ENE,70,0.9,3.5,67,0.00,CLR,,0.00,577.0,WeatherDisplay:10.37,2013-08-01 16:28:00,
2013-08-01 09:34:00,63.2,52.5,30.03,East,86,2.9,5.8,68,0.00,CLR,,0.00,592.0,WeatherDisplay:10.37,2013-08-01 16:34:00,
2013-08-01 09:39:00,62.5,52.6,30.03,SSE,168,3.9,4.6,70,0.00,CLR,,0.00,606.0,WeatherDisplay:10.37,2013-08-01 16:39:00,
2013-08-01 09:44:00,62.4,52.5,30.02,South,169,4.9,5.8,70,0.00,CLR,,0.00,621.0,WeatherDisplay:10.37,2013-08-01 16:44:00,
2013-08-01 09:49:00,62.6,53.4,30.03,South,171,1.8,3.5,72,0.00,CLR,,0.00,635.0,WeatherDisplay:10.37,2013-08-01 16:49:00,
2013-08-01 09:54:00,64.1,53.3,30.03,South,171,0.0,2.3,68,0.00,CLR,,0.00,650.0,WeatherDisplay:10.37,2013-08-01 16:54:00,
2013-08-01 09:59:00,65.1,53.0,30.02,South,171,0.7,3.5,65,0.00,CLR,,0.00,664.0,WeatherDisplay:10.37,2013-08-01 16:59:00,
2013-08-01 10:09:00,65.9,53.4,30.03,SSE,155,2.2,3.5,64,0.00,CLR,,0.00,691.0,WeatherDisplay:10.37,2013-08-01 17:09:00,
2013-08-01 10:14:00,65.9,53.4,30.03,ESE,114,3.4,4.6,64,0.00,CLR,,0.00,707.0,WeatherDisplay:10.37,2013-08-01 17:14:00,
2013-08-01 10:19:00,67.5,54.5,30.03,ESE,114,1.5,3.0,63,0.00,CLR,,0.00,721.0,WeatherDisplay:10.37,2013-08-01 17:19:00,
2013-08-01 10:24:00,67.7,54.2,30.03,ESE,114,0.4,2.3,62,0.00,CLR,,0.00,731.0,WeatherDisplay:10.37,2013-08-01 17:24:00,
2013-08-01 10:29:00,67.6,54.6,30.03,SE,129,3.1,3.5,63,0.00,CLR,,0.00,745.0,WeatherDisplay:10.37,2013-08-01 17:29:00,
2013-08-01 10:36:00,65.8,54.1,30.03,SE,128,1.0,5.0,66,0.00,CLR,,0.00,759.0,WeatherDisplay:10.37,2013-08-01 17:36:00,
2013-08-01 10:41:00,67.3,54.7,30.03,SE,129,1.2,2.3,64,0.00,CLR,,0.00,772.0,WeatherDisplay:10.37,2013-08-01 17:41:00,
2013-08-01 10:47:00,66.4,54.3,30.02,SSE,151,1.2,3.5,65,0.00,CLR,,0.00,789.0,WeatherDisplay:10.37,2013-08-01 17:47:00,
2013-08-01 10:53:00,67.9,55.3,30.02,SSE,150,1.4,3.5,64,0.00,CLR,,0.00,803.0,WeatherDisplay:10.37,2013-08-01 17:53:00,
2013-08-01 10:58:00,68.8,55.2,30.02,ESE,112,2.6,6.9,62,0.00,CLR,,0.00,814.0,WeatherDisplay:10.37,2013-08-01 17:58:00,
2013-08-01 11:04:00,68.6,55.5,30.02,ENE,74,3.7,6.9,63,0.00,CLR,,0.00,826.0,WeatherDisplay:10.37,2013-08-01 18:04:00,
2013-08-01 11:09:00,69.0,56.3,30.02,NE,36,6.8,10.4,64,0.00,CLR,,0.00,831.0,WeatherDisplay:10.37,2013-08-01 18:09:00,
2013-08-01 11:14:00,68.4,56.2,30.02,NE,38,4.3,5.8,65,0.00,CLR,,0.00,840.0,WeatherDisplay:10.37,2013-08-01 18:14:00,
2013-08-01 11:20:00,69.6,56.0,30.02,NE,38,2.0,3.5,62,0.00,CLR,,0.00,856.0,WeatherDisplay:10.37,2013-08-01 18:20:00,
2013-08-01 11:25:00,69.5,55.9,30.02,NE,38,1.0,2.3,62,0.00,CLR,,0.00,867.0,WeatherDisplay:10.37,2013-08-01 18:25:00,
2013-08-01 11:32:00,69.9,55.8,30.02,NE,37,3.2,5.8,61,0.00,CLR,,0.00,877.0,WeatherDisplay:10.37,2013-08-01 18:32:00,
2013-08-01 11:37:00,70.4,56.3,30.02,NE,44,2.1,5.0,61,0.00,CLR,,0.00,886.0,WeatherDisplay:10.37,2013-08-01 18:37:00,
2013-08-01 11:42:00,70.3,56.2,30.02,NNE,33,5.4,8.1,61,0.00,CLR,,0.00,889.0,WeatherDisplay:10.37,2013-08-01 18:42:00,
2013-08-01 11:47:00,69.7,56.5,30.02,NE,49,3.6,5.8,63,0.00,CLR,,0.00,898.0,WeatherDisplay:10.37,2013-08-01 18:47:00,
2013-08-01 11:53:00,70.1,56.0,30.02,NE,49,6.0,8.1,61,0.00,CLR,,0.00,912.0,WeatherDisplay:10.37,2013-08-01 18:53:00,
2013-08-01 11:58:00,70.3,55.8,30.02,NE,49,2.5,4.6,60,0.00,CLR,,0.00,914.0,WeatherDisplay:10.37,2013-08-01 18:58:00,
2013-08-01 12:05:00,72.0,56.4,30.02,NE,37,5.5,8.1,58,0.00,CLR,,0.00,923.0,WeatherDisplay:10.37,2013-08-01 19:05:00,
2013-08-01 12:10:00,71.9,57.3,30.02,NNE,27,3.1,4.6,60,0.00,CLR,,0.00,930.0,WeatherDisplay:10.37,2013-08-01 19:10:00,
2013-08-01 12:15:00,71.1,55.6,30.01,NNE,28,1.0,3.5,58,0.00,CLR,,0.00,940.0,WeatherDisplay:10.37,2013-08-01 19:15:00,
2013-08-01 12:20:00,70.2,55.7,30.01,SSE,165,2.5,5.8,60,0.00,CLR,,0.00,949.0,WeatherDisplay:10.37,2013-08-01 19:20:00,
2013-08-01 12:25:00,71.2,56.1,30.01,SE,136,3.9,5.8,59,0.00,CLR,,0.00,951.0,WeatherDisplay:10.37,2013-08-01 19:25:00,
2013-08-01 12:30:00,71.3,56.2,30.01,SE,136,2.7,3.5,59,0.00,CLR,,0.00,954.0,WeatherDisplay:10.37,2013-08-01 19:30:00,
2013-08-01 12:35:00,70.9,56.3,30.01,ESE,119,1.9,2.0,60,0.00,CLR,,0.00,962.0,WeatherDisplay:10.37,2013-08-01 19:35:00,
2013-08-01 12:40:00,71.6,56.5,30.01,ESE,117,0.8,3.5,59,0.00,CLR,,0.00,967.0,WeatherDisplay:10.37,2013-08-01 19:40:00,
2013-08-01 12:45:00,72.6,56.5,30.01,ESE,119,3.3,4.6,57,0.00,CLR,,0.00,965.0,WeatherDisplay:10.37,2013-08-01 19:45:00,
2013-08-01 12:50:00,72.0,56.9,30.00,SE,135,2.4,3.5,59,0.00,CLR,,0.00,967.0,WeatherDisplay:10.37,2013-08-01 19:50:00,
2013-08-01 12:55:00,71.3,56.2,30.00,ESE,117,3.5,9.2,59,0.00,CLR,,0.00,969.0,WeatherDisplay:10.37,2013-08-01 19:55:00,
2013-08-01 13:00:00,71.3,56.2,30.01,ESE,117,5.5,8.1,59,0.00,CLR,,0.00,969.0,WeatherDisplay:10.37,2013-08-01 20:00:00,
2013-08-01 13:05:00,70.5,56.4,30.01,SSE,167,3.6,5.8,61,0.00,CLR,,0.00,969.0,WeatherDisplay:10.37,2013-08-01 20:05:00,
2013-08-01 13:10:00,70.8,56.2,30.01,SE,124,5.3,8.1,60,0.00,CLR,,0.00,969.0,WeatherDisplay:10.37,2013-08-01 20:10:00,
2013-08-01 13:16:00,70.2,56.1,30.00,SE,128,3.0,8.0,61,0.00,CLR,,0.00,967.0,WeatherDisplay:10.37,2013-08-01 20:16:00,
2013-08-01 13:22:00,71.3,56.7,30.00,ESE,113,3.1,8.0,60,0.00,CLR,,0.00,965.0,WeatherDisplay:10.37,2013-08-01 20:22:00,
2013-08-01 13:27:00,71.5,56.4,30.00,East,96,2.4,4.6,59,0.00,CLR,,0.00,965.0,WeatherDisplay:10.37,2013-08-01 20:27:00,
2013-08-01 13:32:00,71.5,56.9,30.00,SSE,163,3.2,5.8,60,0.00,CLR,,0.00,965.0,WeatherDisplay:10.37,2013-08-01 20:32:00,
2013-08-01 13:37:00,72.0,56.4,30.00,South,188,3.7,6.9,58,0.00,CLR,,0.00,963.0,WeatherDisplay:10.37,2013-08-01 20:37:00,
2013-08-01 13:42:00,70.6,56.5,30.00,ESE,122,2.5,5.8,61,0.00,CLR,,0.00,969.0,WeatherDisplay:10.37,2013-08-01 20:42:00,
2013-08-01 13:47:00,71.7,57.1,30.00,ESE,111,2.5,2.5,60,0.00,CLR,,0.00,965.0,WeatherDisplay:10.37,2013-08-01 20:47:00,
2013-08-01 13:52:00,73.1,57.4,30.00,ESE,110,1.4,2.3,58,0.00,CLR,,0.00,958.0,WeatherDisplay:10.37,2013-08-01 20:52:00,
2013-08-01 13:57:00,73.8,57.1,29.99,ESE,109,2.1,3.5,56,0.00,CLR,,0.00,958.0,WeatherDisplay:10.37,2013-08-01 20:57:00,
2013-08-01 14:02:00,73.3,56.7,29.99,ESE,116,2.2,4.6,56,0.00,CLR,,0.00,951.0,WeatherDisplay:10.37,2013-08-01 21:02:00,
2013-08-01 14:07:00,72.6,56.5,29.99,ESE,116,2.2,8.1,57,0.00,CLR,,0.00,946.0,WeatherDisplay:10.37,2013-08-01 21:07:00,
2013-08-01 14:12:00,73.9,56.7,29.99,ESE,117,4.3,8.1,55,0.00,CLR,,0.00,944.0,WeatherDisplay:10.37,2013-08-01 21:12:00,
2013-08-01 14:17:00,73.3,56.2,29.99,SE,130,3.5,5.8,55,0.00,CLR,,0.00,940.0,WeatherDisplay:10.37,2013-08-01 21:17:00,
2013-08-01 14:22:00,72.8,56.2,29.99,ESE,111,2.8,4.6,56,0.00,CLR,,0.00,939.0,WeatherDisplay:10.37,2013-08-01 21:22:00,
2013-08-01 14:27:00,73.4,56.2,29.99,SSE,156,3.5,5.8,55,0.00,CLR,,0.00,930.0,WeatherDisplay:10.37,2013-08-01 21:27:00,
2013-08-01 14:32:00,73.5,56.8,29.98,SSW,198,0.5,3.5,56,0.00,CLR,,0.00,925.0,WeatherDisplay:10.37,2013-08-01 21:32:00,
2013-08-01 14:37:00,73.6,56.4,29.98,SSE,150,3.6,5.8,55,0.00,CLR,,0.00,919.0,WeatherDisplay:10.37,2013-08-01 21:37:00,
2013-08-01 14:42:00,73.6,56.9,29.98,East,95,3.8,6.9,56,0.00,CLR,,0.00,909.0,WeatherDisplay:10.37,2013-08-01 21:42:00,
2013-08-01 14:47:00,73.3,57.1,29.98,SSW,192,2.3,3.5,57,0.00,CLR,,0.00,904.0,WeatherDisplay:10.37,2013-08-01 21:47:00,
2013-08-01 14:52:00,74.5,57.8,29.98,ESE,105,1.6,6.9,56,0.00,CLR,,0.00,896.0,WeatherDisplay:10.37,2013-08-01 21:52:00,
2013-08-01 14:57:00,74.5,56.8,29.97,ESE,109,4.3,4.3,54,0.00,CLR,,0.00,888.0,WeatherDisplay:10.37,2013-08-01 21:57:00,
2013-08-01 15:03:00,74.0,56.3,29.97,ESE,118,6.3,9.2,54,0.00,CLR,,0.00,874.0,WeatherDisplay:10.37,2013-08-01 22:03:00,
2013-08-01 15:08:00,73.9,56.7,29.97,SSW,196,5.3,8.1,55,0.00,CLR,,0.00,865.0,WeatherDisplay:10.37,2013-08-01 22:08:00,
2013-08-01 15:13:00,73.8,56.6,29.97,South,182,3.4,5.8,55,0.00,CLR,,0.00,856.0,WeatherDisplay:10.37,2013-08-01 22:13:00,
2013-08-01 15:18:00,74.5,57.3,29.97,SE,132,2.6,4.6,55,0.00,CLR,,0.00,849.0,WeatherDisplay:10.37,2013-08-01 22:18:00,
2013-08-01 15:23:00,74.6,56.9,29.97,ESE,110,2.5,3.5,54,0.00,CLR,,0.00,840.0,WeatherDisplay:10.37,2013-08-01 22:23:00,
2013-08-01 15:29:00,74.5,56.2,29.97,ESE,123,3.8,4.6,53,0.00,CLR,,0.00,826.0,WeatherDisplay:10.37,2013-08-01 22:29:00,
2013-08-01 15:34:00,73.5,56.3,29.97,SE,128,7.4,10.4,55,0.00,CLR,,0.00,814.0,WeatherDisplay:10.37,2013-08-01 22:34:00,
2013-08-01 15:39:00,73.1,56.0,29.97,SSE,151,5.2,9.2,55,0.00,CLR,,0.00,805.0,WeatherDisplay:10.37,2013-08-01 22:39:00,
2013-08-01 15:45:00,72.8,56.2,29.96,ESE,118,4.7,4.7,56,0.00,CLR,,0.00,791.0,WeatherDisplay:10.37,2013-08-01 22:45:00,
2013-08-01 15:50:00,73.9,56.7,29.96,SSE,149,4.1,4.6,55,0.00,CLR,,0.00,777.0,WeatherDisplay:10.37,2013-08-01 22:50:00,
2013-08-01 15:55:00,73.2,56.1,29.96,SSE,160,1.4,3.5,55,0.00,CLR,,0.00,766.0,WeatherDisplay:10.37,2013-08-01 22:55:00,
2013-08-01 16:00:00,74.1,56.4,29.96,SSW,202,4.2,5.8,54,0.00,CLR,,0.00,758.0,WeatherDisplay:10.37,2013-08-01 23:00:00,
2013-08-01 16:05:00,74.9,57.1,29.95,South,191,1.2,1.2,54,0.00,CLR,,0.00,747.0,WeatherDisplay:10.37,2013-08-01 23:05:00,
2013-08-01 16:10:00,75.4,57.1,29.95,East,82,1.7,3.5,53,0.00,CLR,,0.00,729.0,WeatherDisplay:10.37,2013-08-01 23:10:00,
2013-08-01 16:15:00,75.8,57.4,29.95,South,171,0.2,2.3,53,0.00,CLR,,0.00,722.0,WeatherDisplay:10.37,2013-08-01 23:15:00,
2013-08-01 16:20:00,75.2,56.9,29.95,SSE,161,4.8,5.8,53,0.00,CLR,,0.00,710.0,WeatherDisplay:10.37,2013-08-01 23:20:00,
2013-08-01 16:25:00,74.0,56.8,29.95,SE,145,2.8,4.6,55,0.00,CLR,,0.00,696.0,WeatherDisplay:10.37,2013-08-01 23:25:00,
2013-08-01 16:30:00,73.3,56.2,29.95,ESE,118,2.4,4.6,55,0.00,CLR,,0.00,682.0,WeatherDisplay:10.37,2013-08-01 23:30:00,
2013-08-01 16:35:00,73.1,56.5,29.95,ESE,113,3.5,6.9,56,0.00,CLR,,0.00,666.0,WeatherDisplay:10.37,2013-08-01 23:35:00,
2013-08-01 16:40:00,73.9,57.2,29.95,ESE,116,2.0,3.5,56,0.00,CLR,,0.00,650.0,WeatherDisplay:10.37,2013-08-01 23:40:00,
2013-08-01 16:45:00,75.1,57.3,29.95,ESE,117,2.4,3.5,54,0.00,CLR,,0.00,633.0,WeatherDisplay:10.37,2013-08-01 23:45:00,
2013-08-01 16:50:00,74.8,56.5,29.95,SE,130,3.5,5.0,53,0.00,CLR,,0.00,622.0,WeatherDisplay:10.37,2013-08-01 23:50:00,
2013-08-01 16:56:00,74.1,56.9,29.95,SE,130,3.0,7.0,55,0.00,CLR,,0.00,605.0,WeatherDisplay:10.37,2013-08-01 23:56:00,
2013-08-01 17:02:00,74.6,56.9,29.94,NNE,27,1.7,3.5,54,0.00,CLR,,0.00,585.0,WeatherDisplay:10.37,2013-08-02 00:02:00,
2013-08-01 17:08:00,75.1,56.8,29.94,South,180,0.2,1.2,53,0.00,CLR,,0.00,570.0,WeatherDisplay:10.37,2013-08-02 00:08:00,
2013-08-01 17:13:00,75.2,55.8,29.94,South,180,2.0,4.6,51,0.00,CLR,,0.00,554.0,WeatherDisplay:10.37,2013-08-02 00:13:00,
2013-08-01 17:18:00,75.0,54.0,29.95,North,360,4.1,5.8,48,0.00,CLR,,0.00,540.0,WeatherDisplay:10.37,2013-08-02 00:18:00,
2013-08-01 17:23:00,75.7,54.6,29.94,North,360,0.3,1.2,48,0.00,CLR,,0.00,524.0,WeatherDisplay:10.37,2013-08-02 00:23:00,
2013-08-01 17:30:00,76.2,54.5,29.94,North,360,2.1,3.5,47,0.00,CLR,,0.00,497.0,WeatherDisplay:10.37,2013-08-02 00:30:00,
2013-08-01 17:35:00,75.6,55.6,29.94,East,99,1.4,4.6,50,0.00,CLR,,0.00,480.0,WeatherDisplay:10.37,2013-08-02 00:35:00,
2013-08-01 17:40:00,74.9,56.1,29.94,East,84,0.6,2.3,52,0.00,CLR,,0.00,468.0,WeatherDisplay:10.37,2013-08-02 00:40:00,
2013-08-01 17:45:00,73.7,56.0,29.94,South,182,0.3,0.0,54,0.00,CLR,,0.00,450.0,WeatherDisplay:10.37,2013-08-02 00:45:00,
2013-08-01 17:50:00,74.4,54.0,29.94,NNE,28,3.4,4.6,49,0.00,CLR,,0.00,432.0,WeatherDisplay:10.37,2013-08-02 00:50:00,
2013-08-01 17:55:00,74.9,53.3,29.94,NNE,29,2.1,3.5,47,0.00,CLR,,0.00,411.0,WeatherDisplay:10.37,2013-08-02 00:55:00,
2013-08-01 18:00:00,75.5,54.4,29.93,NNE,30,0.5,3.5,48,0.00,CLR,,0.00,397.0,WeatherDisplay:10.37,2013-08-02 01:00:00,
2013-08-01 18:06:00,75.4,53.8,29.94,NNE,29,0.0,5.0,47,0.00,CLR,,0.00,378.0,WeatherDisplay:10.37,2013-08-02 01:06:00,
2013-08-01 18:11:00,74.6,53.6,29.93,NNE,29,0.9,1.2,48,0.00,CLR,,0.00,362.0,WeatherDisplay:10.37,2013-08-02 01:11:00,
2013-08-01 18:17:00,74.4,53.4,29.93,NNW,338,2.1,3.5,48,0.00,CLR,,0.00,341.0,WeatherDisplay:10.37,2013-08-02 01:17:00,
2013-08-01 18:22:00,74.1,53.2,29.93,North,360,2.0,3.5,48,0.00,CLR,,0.00,322.0,WeatherDisplay:10.37,2013-08-02 01:22:00,
2013-08-01 18:28:00,73.5,53.2,29.93,NNE,14,2.8,4.6,49,0.00,CLR,,0.00,302.0,WeatherDisplay:10.37,2013-08-02 01:28:00,
2013-08-01 18:33:00,72.9,53.2,29.93,NNE,17,0.1,2.3,50,0.00,CLR,,0.00,287.0,WeatherDisplay:10.37,2013-08-02 01:33:00,
2013-08-01 18:39:00,72.5,53.3,29.93,NNE,17,1.5,3.5,51,0.00,CLR,,0.00,267.0,WeatherDisplay:10.37,2013-08-02 01:39:00,
2013-08-01 18:44:00,72.0,52.9,29.93,NW,321,1.0,3.5,51,0.00,BKN,,0.00,47.0,WeatherDisplay:10.37,2013-08-02 01:44:00,
2013-08-01 18:49:00,71.4,52.9,29.93,WNW,288,2.7,3.5,52,0.00,BKN,,0.00,28.0,WeatherDisplay:10.37,2013-08-02 01:49:00,
2013-08-01 18:55:00,70.8,52.8,29.93,WNW,286,2.5,3.5,53,0.00,BKN,,0.00,26.0,WeatherDisplay:10.37,2013-08-02 01:55:00,
2013-08-01 19:00:00,70.3,52.9,29.93,WNW,286,0.7,2.3,54,0.00,BKN,,0.00,25.0,WeatherDisplay:10.37,2013-08-02 02:00:00,
2013-08-01 19:05:00,70.2,53.3,29.93,North,355,0.5,6.9,55,0.00,BKN,,0.00,28.0,WeatherDisplay:10.37,2013-08-02 02:05:00,
2013-08-01 19:10:00,69.9,52.5,29.93,NW,317,0.8,3.5,54,0.00,BKN,,0.00,21.0,WeatherDisplay:10.37,2013-08-02 02:10:00,
2013-08-01 19:15:00,69.6,52.7,29.93,NNW,337,0.2,2.3,55,0.00,BKN,,0.00,21.0,WeatherDisplay:10.37,2013-08-02 02:15:00,
2013-08-01 19:21:00,69.2,52.8,29.93,NNE,33,0.1,1.2,56,0.00,BKN,,0.00,19.0,WeatherDisplay:10.37,2013-08-02 02:21:00,
2013-08-01 19:27:00,68.9,52.6,29.93,NNE,19,0.5,4.6,56,0.00,BKN,,0.00,18.0,WeatherDisplay:10.37,2013-08-02 02:27:00,
2013-08-01 19:33:00,68.6,52.3,29.93,NNE,19,0.0,0.0,56,0.00,BKN,,0.00,16.0,WeatherDisplay:10.37,2013-08-02 02:33:00,
2013-08-01 19:38:00,68.1,54.1,29.93,SSW,202,4.0,6.9,61,0.00,BKN,,0.00,16.0,WeatherDisplay:10.37,2013-08-02 02:38:00,
2013-08-01 19:43:00,67.0,54.4,29.93,SSW,198,1.2,3.5,64,0.00,BKN,,0.00,14.0,WeatherDisplay:10.37,2013-08-02 02:43:00,
2013-08-01 19:48:00,66.1,54.4,29.93,SSW,198,0.0,0.0,66,0.00,BKN,,0.00,12.0,WeatherDisplay:10.37,2013-08-02 02:48:00,
2013-08-01 19:53:00,65.6,54.3,29.93,SSW,198,0.0,1.2,67,0.00,BKN,,0.00,12.0,WeatherDisplay:10.37,2013-08-02 02:53:00,
2013-08-01 19:58:00,65.1,54.3,29.93,SSW,198,0.4,2.0,68,0.00,BKN,,0.00,11.0,WeatherDisplay:10.37,2013-08-02 02:58:00,
2013-08-01 20:03:00,64.8,54.0,29.93,SSW,198,0.0,0.0,68,0.00,BKN,,0.00,9.0,WeatherDisplay:10.37,2013-08-02 03:03:00,
2013-08-01 20:09:00,64.5,54.1,29.93,SSW,198,0.0,0.0,69,0.00,SCT,,0.00,7.0,WeatherDisplay:10.37,2013-08-02 03:09:00,
2013-08-01 20:14:00,64.3,54.3,29.93,SSW,198,0.7,3.5,70,0.00,CLR,,0.00,5.0,WeatherDisplay:10.37,2013-08-02 03:14:00,
2013-08-01 20:19:00,64.0,54.0,29.93,SSW,196,0.9,2.3,70,0.00,,,0.00,0.0,WeatherDisplay:10.37,2013-08-02 03:19:00,
2013-08-01 20:24:00,63.9,53.5,29.93,SSW,192,1.9,3.5,69,0.00,,,0.00,0.0,WeatherDisplay:10.37,2013-08-02 03:24:00,
2013-08-01 20:29:00,63.6,53.6,29.93,SSW,194,2.6,3.5,70,0.00,,,0.00,0.0,WeatherDisplay:10.37,2013-08-02 03:29:00,
2013-08-01 20:34:00,63.2,53.6,29.93,SSW,193,0.8,2.3,71,0.00,,,0.00,0.0,WeatherDisplay:10.37,2013-08-02 03:34:00,
2013-08-01 20:39:00,63.1,53.2,29.93,SSW,193,1.2,2.3,70,0.00,,,0.00,0.0,WeatherDisplay:10.37,2013-08-02 03:39:00,
2013-08-01 20:44:00,62.9,53.7,29.93,SSW,193,0.2,1.2,72,0.00,,,0.00,0.0,WeatherDisplay:10.37,2013-08-02 03:44:00,
2013-08-01 20:49:00,62.6,52.7,29.93,SSW,193,0.0,0.0,70,0.00,,,0.00,0.0,WeatherDisplay:10.37,2013-08-02 03:49:00,
2013-08-01 20:54:00,62.6,52.3,29.94,SSW,193,0.3,1.2,69,0.00,,,0.00,0.0,WeatherDisplay:10.37,2013-08-02 03:54:00,
2013-08-01 20:59:00,62.5,52.2,29.93,South,188,1.7,3.5,69,0.00,,,0.00,0.0,WeatherDisplay:10.37,2013-08-02 03:59:00,
2013-08-01 21:01:00,62.5,52.2,29.93,South,188,1.4,3.5,69,0.00,,,0.00,0.0,WeatherDisplay:10.37,2013-08-02 04:01:00,
2013-08-01 21:03:00,62.5,52.6,29.93,South,187,0.2,3.5,70,0.00,,,0.00,0.0,WeatherDisplay:10.37,2013-08-02 04:03:00,
2013-08-01 21:04:00,62.4,52.5,29.93,WSW,253,3.1,4.6,70,0.00,,,0.00,0.0,WeatherDisplay:10.37,2013-08-02 04:04:00,
2013-08-01 21:05:00,62.3,52.4,29.93,WSW,253,1.4,4.6,70,0.00,,,0.00,0.0,WeatherDisplay:10.37,2013-08-02 04:05:00,
2013-08-01 21:08:00,62.0,52.5,29.93,WSW,254,0.1,1.2,71,0.00,,,0.00,0.0,WeatherDisplay:10.37,2013-08-02 04:08:00,
2013-08-01 21:13:00,61.6,52.9,29.94,WSW,253,0.2,1.2,73,0.00,,,0.00,0.0,WeatherDisplay:10.37,2013-08-02 04:13:00,
2013-08-01 21:18:00,61.3,52.6,29.94,WSW,254,0.1,1.2,73,0.00,,,0.00,0.0,WeatherDisplay:10.37,2013-08-02 04:18:00,
2013-08-01 21:23:00,61.1,52.7,29.94,WSW,254,0.3,1.0,74,0.00,,,0.00,0.0,WeatherDisplay:10.37,2013-08-02 04:23:00,
2013-08-01 21:27:00,60.9,52.6,29.94,WSW,254,0.6,1.2,74,0.00,,,0.00,0.0,WeatherDisplay:10.37,2013-08-02 04:27:00,
2013-08-01 21:32:00,60.7,52.7,29.94,WSW,254,0.0,0.0,75,0.00,,,0.00,0.0,WeatherDisplay:10.37,2013-08-02 04:32:00,
2013-08-01 21:37:00,60.5,52.2,29.94,WSW,253,0.2,1.2,74,0.00,,,0.00,0.0,WeatherDisplay:10.37,2013-08-02 04:37:00,
2013-08-01 21:42:00,60.3,52.3,29.94,WSW,254,0.0,0.0,75,0.00,,,0.00,0.0,WeatherDisplay:10.37,2013-08-02 04:42:00,
2013-08-01 21:47:00,60.0,52.4,29.94,WSW,253,0.3,0.0,76,0.00,,,0.00,0.0,WeatherDisplay:10.37,2013-08-02 04:47:00,
2013-08-01 21:52:00,59.7,52.1,29.94,WSW,254,0.0,1.2,76,0.00,,,0.00,0.0,WeatherDisplay:10.37,2013-08-02 04:52:00,
2013-08-01 21:57:00,59.4,52.2,29.95,WSW,253,0.5,3.5,77,0.00,,,0.00,0.0,WeatherDisplay:10.37,2013-08-02 04:57:00,
2013-08-01 22:02:00,59.1,52.2,29.95,WSW,254,0.0,0.0,78,0.00,,,0.00,0.0,WeatherDisplay:10.37,2013-08-02 05:02:00,
2013-08-01 22:07:00,58.9,52.4,29.95,WSW,253,0.9,2.3,79,0.00,,,0.00,0.0,WeatherDisplay:10.37,2013-08-02 05:07:00,
2013-08-01 22:12:00,58.8,52.3,29.95,WSW,254,0.0,0.0,79,0.00,,,0.00,0.0,WeatherDisplay:10.37,2013-08-02 05:12:00,
2013-08-01 22:17:00,58.5,52.0,29.95,WSW,253,0.0,0.0,79,0.00,,,0.00,0.0,WeatherDisplay:10.37,2013-08-02 05:17:00,
2013-08-01 22:22:00,58.2,51.7,29.95,WSW,254,1.3,2.3,79,0.00,,,0.00,0.0,WeatherDisplay:10.37,2013-08-02 05:22:00,
2013-08-01 22:27:00,58.1,52.0,29.95,WSW,253,0.1,1.2,80,0.00,,,0.00,0.0,WeatherDisplay:10.37,2013-08-02 05:27:00,
2013-08-01 22:32:00,57.9,51.8,29.95,WSW,254,0.0,0.0,80,0.00,,,0.00,0.0,WeatherDisplay:10.37,2013-08-02 05:32:00,
2013-08-01 22:37:00,57.9,52.1,29.95,WSW,254,0.0,0.0,81,0.00,,,0.00,0.0,WeatherDisplay:10.37,2013-08-02 05:37:00,
2013-08-01 22:42:00,57.7,51.9,29.95,WSW,254,0.0,0.0,81,0.00,,,0.00,0.0,WeatherDisplay:10.37,2013-08-02 05:42:00,
2013-08-01 22:47:00,57.6,51.8,29.95,WSW,253,0.0,0.0,81,0.00,,,0.00,0.0,WeatherDisplay:10.37,2013-08-02 05:47:00,
2013-08-01 22:52:00,57.6,51.8,29.95,WSW,254,0.0,0.0,81,0.00,,,0.00,0.0,WeatherDisplay:10.37,2013-08-02 05:52:00,
2013-08-01 22:57:00,57.0,51.2,29.95,WSW,253,0.0,0.0,81,0.00,,,0.00,0.0,WeatherDisplay:10.37,2013-08-02 05:57:00,
2013-08-01 23:02:00,57.0,51.6,29.95,WSW,254,0.0,0.0,82,0.00,,,0.00,0.0,WeatherDisplay:10.37,2013-08-02 06:02:00,
2013-08-01 23:07:00,56.8,51.4,29.95,WSW,253,0.0,0.0,82,0.00,,,0.00,0.0,WeatherDisplay:10.37,2013-08-02 06:07:00,
2013-08-01 23:12:00,56.6,51.5,29.95,WSW,254,0.0,0.0,83,0.00,,,0.00,0.0,WeatherDisplay:10.37,2013-08-02 06:12:00,
2013-08-01 23:17:00,56.2,51.1,29.95,WSW,253,0.2,1.2,83,0.00,,,0.00,0.0,WeatherDisplay:10.37,2013-08-02 06:17:00,
2013-08-01 23:22:00,55.9,51.1,29.94,WSW,254,0.0,0.0,84,0.00,,,0.00,0.0,WeatherDisplay:10.37,2013-08-02 06:22:00,
2013-08-01 23:27:00,55.9,51.1,29.94,WSW,254,0.0,0.0,84,0.00,,,0.00,0.0,WeatherDisplay:10.37,2013-08-02 06:27:00,
2013-08-01 23:32:00,55.8,51.0,29.94,WSW,253,0.0,0.0,84,0.00,,,0.00,0.0,WeatherDisplay:10.37,2013-08-02 06:32:00,
2013-08-01 23:37:00,55.6,51.2,29.94,WSW,254,0.0,0.0,85,0.00,,,0.00,0.0,WeatherDisplay:10.37,2013-08-02 06:37:00,
2013-08-01 23:43:00,55.2,50.8,29.94,WSW,253,0.0,0.0,85,0.00,,,0.00,0.0,WeatherDisplay:10.37,2013-08-02 06:43:00,
2013-08-01 23:48:00,55.3,50.9,29.94,WSW,254,0.0,0.0,85,0.00,,,0.00,0.0,WeatherDisplay:10.37,2013-08-02 06:48:00,
2013-08-01 23:53:00,55.3,50.9,29.94,WSW,253,0.0,0.0,85,0.00,,,0.00,0.0,WeatherDisplay:10.37,2013-08-02 06:53:00,
2013-08-01 23:58:00,55.2,51.1,29.94,WSW,254,0.0,0.0,86,0.00,,,0.00,0.0,WeatherDisplay:10.37,2013-08-02 06:58:00,